This is the latest recevied weather packets stored in our database for station/object DL1MMS-10. If no packets are shown the sender has not sent any weather packets the latest 10 day(s).
| Time | Temp. | Humidity | Pressure | Rain* | Wind** | Luminosity | Snow |
|---|---|---|---|---|---|---|---|
| 1777601515 | 0.56° C | 53% | 1025.2 hPa | 0 mm | - | - | - |
| 1777601214 | 1.11° C | 52% | 1025.1 hPa | 0 mm | - | - | - |
| 1777600914 | 1.11° C | 51% | 1025.1 hPa | 0 mm | - | - | - |
| 1777600614 | 1.67° C | 50% | 1025.1 hPa | 0 mm | - | - | - |
| 1777600313 | 1.67° C | 50% | 1025.1 hPa | 0 mm | - | - | - |
| 1777600013 | 1.67° C | 50% | 1025 hPa | 0 mm | - | - | - |
| 1777599713 | 1.67° C | 49% | 1025 hPa | 0 mm | - | - | - |
| 1777599413 | 1.67° C | 49% | 1025 hPa | 0 mm | - | - | - |
| 1777599112 | 2.22° C | 49% | 1025 hPa | 0 mm | - | - | - |
| 1777598812 | 2.22° C | 48% | 1025 hPa | 0 mm | - | - | - |
| 1777598512 | 2.22° C | 47% | 1025 hPa | 0 mm | - | - | - |
| 1777598212 | 2.22° C | 47% | 1025.1 hPa | 0 mm | - | - | - |
| 1777597911 | 2.22° C | 46% | 1025 hPa | 0 mm | - | - | - |
| 1777597611 | 2.78° C | 46% | 1025 hPa | 0 mm | - | - | - |
| 1777597311 | 2.78° C | 45% | 1025 hPa | 0 mm | - | - | - |
| 1777597010 | 2.78° C | 44% | 1025 hPa | 0 mm | - | - | - |
| 1777596710 | 3.33° C | 43% | 1025.1 hPa | 0 mm | - | - | - |
| 1777596410 | 3.33° C | 43% | 1025 hPa | 0 mm | - | - | - |
| 1777596110 | 3.89° C | 42% | 1025.2 hPa | 0 mm | - | - | - |
| 1777595809 | 3.89° C | 41% | 1025.2 hPa | 0 mm | - | - | - |
| 1777595509 | 4.44° C | 40% | 1025.2 hPa | 0 mm | - | - | - |
| 1777595209 | 4.44° C | 40% | 1025.1 hPa | 0 mm | - | - | - |
| 1777594908 | 4.44° C | 39% | 1025.2 hPa | 0 mm | - | - | - |
| 1777594608 | 4.44° C | 39% | 1025.1 hPa | 0 mm | - | - | - |
| 1777594308 | 5° C | 38% | 1025.2 hPa | 0 mm | - | - | - |
* Rain latest hour (hover to see other rain measurements)
** Current wind speed in m/s (hover to see current wind gust speed)